Weather History for Twin Falls, ID

Change the Weather History Date:

Tuesday, November 20, 2012

  Actual Average Record
Temperature  
Mean Temperature 53 °F -  
Max Temperature 58 °F 46 °F 67 °F (2008)
Min Temperature 47 °F 25 °F 10 °F (2000)
Degree Days  
Heating Degree Days 12 29  
Month to date heating degree days 387 502  
Since 1 July heating degree days 819 1121  
Cooling Degree Days 0 0  
Month to date cooling degree days 0 0  
Year to date cooling degree days 970 680  
Growing Degree Days 2 (Base 50)    
Moisture  
Dew Point 36 °F    
Average Humidity 63    
Maximum Humidity 82    
Minimum Humidity 43    
Precipitation  
Precipitation 0.10 in 0.04 in 0.28 in (1983)
Month to date precipitation 0.45 0.72  
Year to date precipitation 7.83 8.97  
Sea Level Pressure  
Sea Level Pressure 29.94 in    
Wind  
Wind Speed 11 mph (SE)    
Max Wind Speed 24 mph    
Max Gust Speed 31 mph    
Visibility 10 miles    
Events Rain    
T = Trace of Precipitation, MM = Missing Value Source: NWS Daily Summary

Daily Weather History Graph

Daily Weather History Graph

Search for Another Location

Airport:

Trip Planner

Search our weather history database for the weather conditions in past years. The results will help you decide how hot, cold, wet, or windy it might be!

Date:

Astronomy

Nov. 20, 2012 Rise Set
Actual Time 7:35 AM MST 5:11 PM MST
Civil Twilight 7:05 AM MST 5:41 PM MST
Nautical Twilight 6:30 AM MST 6:16 PM MST
Astronomical Twilight 5:57 AM MST 6:49 PM MST
Moon 1:07 PM MST (11/20) No Moon Set
Length of Visible Light 10h 36m
Length of Day
9h 35m
First Quarter, 52% of the Moon is Illuminated
Nov 20
First Quarter
Nov 28
Full
Dec 6
Last Quarter
Dec 13
New
Dec 19
First Quarter

Hourly Weather History & Observations

Time (MST) Temp. Dew Point Humidity Pressure Visibility Wind Dir Wind Speed Gust Speed Precip Events Conditions
12:53 AM 54.0 °F 35.1 °F 49% 30.03 in 10.0 mi SSE 9.2 mph - N/A   Overcast
1:53 AM 55.0 °F 34.0 °F 45% 30.00 in 10.0 mi South 20.7 mph 26.5 mph N/A   Overcast
2:53 AM 54.0 °F 34.0 °F 47% 30.02 in 10.0 mi SSE 9.2 mph - N/A   Overcast
3:53 AM 53.1 °F 35.1 °F 50% 30.01 in 10.0 mi SSE 11.5 mph - 0.00 in   Overcast
4:53 AM 51.1 °F 37.0 °F 59% 30.02 in 10.0 mi SSE 10.4 mph - 0.01 in Rain Light Rain
5:53 AM 48.9 °F 37.9 °F 66% 30.04 in 10.0 mi Calm Calm - 0.00 in Rain Light Rain
6:53 AM 51.1 °F 37.9 °F 61% 30.05 in 10.0 mi SE 6.9 mph 17.3 mph 0.00 in Rain Light Rain
7:53 AM 48.0 °F 39.9 °F 74% 30.05 in 10.0 mi SSE 9.2 mph - 0.02 in Rain Light Rain
8:53 AM 46.9 °F 41.0 °F 80% 30.05 in 9.0 mi East 5.8 mph - 0.05 in Rain Light Rain
9:53 AM 48.9 °F 39.9 °F 71% 30.04 in 10.0 mi East 8.1 mph - 0.01 in Rain Light Rain
10:53 AM 48.0 °F 42.1 °F 80% 30.04 in 10.0 mi East 4.6 mph - 0.01 in Rain Light Rain
12:53 PM 50.0 °F 41.0 °F 71% 29.94 in 10.0 mi ENE 6.9 mph - N/A   Overcast
1:53 PM 54.0 °F 37.9 °F 55% 29.89 in 10.0 mi East 9.2 mph - N/A   Mostly Cloudy
2:53 PM 55.9 °F 36.0 °F 47% 29.88 in 10.0 mi East 5.8 mph 20.7 mph N/A   Overcast
3:53 PM 51.1 °F 41.0 °F 68% 29.88 in 10.0 mi East 8.1 mph - N/A   Clear
4:53 PM 57.0 °F 36.0 °F 45% 29.86 in 10.0 mi SSE 13.8 mph - N/A   Clear
5:53 PM 55.9 °F 35.1 °F 45% 29.86 in 10.0 mi SSE 13.8 mph - N/A   Mostly Cloudy
6:53 PM 55.9 °F 34.0 °F 44% 29.85 in 10.0 mi SSE 13.8 mph - N/A   Partly Cloudy
7:53 PM 55.0 °F 33.1 °F 43% 29.85 in 10.0 mi South 15.0 mph - N/A   Clear
8:53 PM 52.0 °F 33.1 °F 49% 29.86 in 10.0 mi South 12.7 mph - N/A   Clear
9:53 PM 51.1 °F 33.1 °F 50% 29.85 in 10.0 mi South 12.7 mph - N/A   Clear
10:53 PM 53.1 °F 32.0 °F 45% 29.83 in 10.0 mi South 13.8 mph - N/A   Scattered Clouds
11:53 PM 54.0 °F 30.9 °F 41% 29.79 in 10.0 mi South 20.7 mph 28.8 mph N/A   Clear